Location: Forshaga
(59.5328°N, 13.4805°E)
Time: 16:57:43
(UTC+02:00)

ISS - Pass Details

Date: 08 March 2021
Orbit: 418 x 422 km, 51.6° (Epoch: 17 April)

Event Time Altitude Azimuth Distance (km) Brightness Sun altitude
Exits shadow 04:09:52 15° 157° (SSE) 1,244 -1.4 -19.8°
Drops below altitude 10° 04:10:49 10° 144° (SE) 1,499 -0.8 -19.7°
Sets 04:13:19 0° 126° (SE) 2,373 0.5 -19.4°
